Regional Weather Roundup
Issued by NWS

Home | Current Version | Previous Version | Graphics & Text | Print | Product List | Glossary On
Versions: 1 2 3 4 5 6 7 8 9 10 11 12 13 14 15 16 17 18 19 20 21 22 23 24 25 26 27 28 29 30 31 32 33 34 35 36 37 38 39 40 41 42 43 44 45 46 47 48 49 50
000
ASUS43 KOAX 310802
RWRNE

WEATHER ROUNDUP FOR NEBRASKA
NATIONAL WEATHER SERVICE OMAHA NE
300 AM CDT MON AUG 31 2015

NOTES: SATELLITE DATA IS BEING USED TO AUGMENT CLOUD COVER ABOVE
       12000 FEET.
       "FAIR" INDICATES FEW OR NO CLOUDS BELOW 12,000 FEET WITH NO
       SIGNIFICANT WEATHER AND/OR OBSTRUCTIONS TO VISIBILITY.

  * THESE STATIONS DO NOT REPORT WEATHER SUCH AS RAIN...SNOW OR FOG.

NEZ001>004-019>022-054>056-310900-
NEBRASKA PANHANDLE

CITY           SKY/WX    TMP DP  RH WIND       PRES   REMARKS
SCOTTSBLUFF    MOCLDY    71  54  54 CALM      29.89F
ALLIANCE       PTCLDY    66  52  60 S10       29.91S
CHADRON        LGT RAIN  73  50  44 CALM      29.82R
KIMBALL        CLEAR     65  47  50 S6        29.97R
SIDNEY         CLEAR     67  49  52 S7        29.96F
$$

NEZ057>060-069>072-079>082-310900-
SOUTHWEST NEBRASKA

CITY           SKY/WX    TMP DP  RH WIND       PRES   REMARKS
NORTH PLATTE   CLEAR     65  56  72 SE8       29.93S
IMPERIAL       CLEAR     69  45  41 S12       29.93S
MCCOOK         CLEAR     65  54  67 MISG      29.94S
$$

NEZ005>010-023>029-035>040-094-310900-
NORTH CENTRAL NEBRASKA

CITY           SKY/WX    TMP DP  RH WIND       PRES   REMARKS
VALENTINE      CLEAR     71  54  54 SW17G25   29.84S
AINSWORTH      CLEAR     69  59  70 S21       29.87F
BROKEN BOW     CLEAR     66  62  87 S9        29.93F
ORD            CLEAR     65  62  90 S7        29.92S
$$

NEZ041-046>049-061>064-073>077-083>087-310900-
SOUTH CENTRAL NEBRASKA

CITY           SKY/WX    TMP DP  RH WIND       PRES   REMARKS
GRAND ISLAND   PTCLDY    66  64  93 S14       29.94F
AURORA         PTCLDY    65  65 100 S7        29.96S
HASTINGS       PTCLDY    65  63  93 S8        29.95F
HEBRON         CLEAR     62  60  94 CALM      29.96S FOG
HOLDREGE       CLEAR     64  62  93 S7        29.95S
KEARNEY *      CLEAR     63  61  94 S8        29.94F
YORK           CLOUDY    63  63 100 S5        29.96S FOG
$$

NEZ011>018-030>034-042>045-310900-
NORTHEAST NEBRASKA

CITY           SKY/WX    TMP DP  RH WIND       PRES   REMARKS
NORFOLK        PTCLDY    67  64  90 S12       29.92F
ALBION         PTCLDY    64  62  92 SE6       29.93F FOG
BLAIR          CLEAR     66  64  92 S3        29.95F FOG
COLUMBUS *     CLEAR    N/A N/A N/A SE3       29.95S
FREMONT        CLEAR     66  64  94 SE3       29.96S FOG
TEKAMAH        FOG       61  61 100 SW5       29.95S VSB 1/4
$$

NEZ050>053-065>068-078-088>093-310900-
SOUTHEAST NEBRASKA

CITY           SKY/WX    TMP DP  RH WIND       PRES   REMARKS
LINCOLN        CLEAR     66  65  96 CALM      29.96S FOG
OMAHA EPPLEY   PTCLDY    66  65  96 CALM      29.95F
BEATRICE       CLEAR     66  65  97 SE3       29.96S FOG
FALLS CITY     FOG       65  64  97 SE3       29.95S VSB 1/4
NEBRASKA CITY    N/A     65  65  99 S5        29.96S FOG
PLATTSMOUTH    CLEAR     65  64  95 SE5       29.96S FOG
$$

NEZ044-045-051>053-067-310900-
OMAHA AREA

CITY           SKY/WX    TMP DP  RH WIND       PRES   REMARKS
OMAHA EPPLEY   PTCLDY    66  65  96 CALM      29.95F
BLAIR          CLEAR     66  64  92 S3        29.95F FOG
FREMONT        CLEAR     66  64  94 SE3       29.96S FOG
OFFUTT AFB     CLEAR     61  61 100 E2        29.94F
PLATTSMOUTH    CLEAR     65  64  95 SE5       29.96S FOG
WAHOO          FOG       62  60  96 S3        29.95F VSB 1/4
$$



USA.gov is the U.S. government's official web portal to all federal, state and local government web resources and services.